Regional Weather Roundup
Issued by NWS San Angelo, TX

Home | Current Version | Previous Version | Text Only | Print | Product List | Glossary On
Versions: 1 2 3 4 5 6 7 8 9 10 11 12 13 14 15 16 17 18 19 20 21 22 23 24 25 26 27 28 29 30 31 32 33 34 35 36 37 38 39 40 41 42 43 44 45 46 47 48 49 50
000
ASUS44 KSJT 021058
RWRSJT
WEST CENTRAL TEXAS REGIONAL WEATHER ROUNDUP
NATIONAL WEATHER SERVICE SAN ANGELO TX
600 AM CDT THU JUL 02 2015

NOTE: "FAIR" INDICATES FEW OR NO CLOUDS BELOW 12,000 FEET WITH NO
SIGNIFICANT WEATHER AND/OR OBSTRUCTIONS TO VISIBILITY.

TXZ049-054-064>066-071>073-076>078-098-099-113-114-127-128-139-140-
154-155-168>170-021200
...LOCATIONS ACROSS WEST CENTRAL TEXAS...

CITY           SKY/WX    TMP DP  RH WIND       PRES   REMARKS
SAN ANGELO     CLEAR     69  65  86 S7        29.99S
ABILENE        CLEAR     71  66  84 S9        29.99S
DYESS AFB      NOT AVBL
JUNCTION       CLEAR     69  62  78 CALM      30.01R
SWEETWATER     NOT AVBL
BROWNWOOD      NOT AVBL
COLEMAN        NOT AVBL
SONORA         NOT AVBL
OZONA          NOT AVBL
BRADY          NOT AVBL
$$

TEXAS PANHANDLE/OKLAHOMA PANHANDLE

CITY           SKY/WX    TMP DP  RH WIND       PRES   REMARKS
AMARILLO       CLOUDY    71  64  78 NW3       30.02F
BORGER         CLOUDY    74  63  68 W8        29.98S
CANADIAN       NOT AVBL
DALHART        CLOUDY    70  61  73 W3        30.04S
DUMAS          NOT AVBL
GUYMON         NOT AVBL
HEREFORD       NOT AVBL
PAMPA          NOT AVBL
PERRYTON       NOT AVBL
$$

SOUTHERN PANHANDLE/SOUTH PLAINS/ROLLING PLAINS

CITY           SKY/WX    TMP DP  RH WIND       PRES   REMARKS
LUBBOCK        CLOUDY    70  64  81 W9        30.03R
SNYDER         NOT AVBL
CHILDRESS      MOCLDY    73  66  78 W3        29.95R
SEMINOLE       NOT AVBL
$$

PERMIAN BASIN

CITY           SKY/WX    TMP DP  RH WIND       PRES   REMARKS
MIDLAND        CLOUDY    73  66  78 S10       30.00R
ODESSA         CLOUDY    73  64  73 S10       30.01R
WINK           CLEAR     71  65  81 E10       29.96S
$$

FAR WEST/SOUTHWEST MOUNTAINS/TRANS PECOS

CITY           SKY/WX    TMP DP  RH WIND       PRES   REMARKS
ALPINE         NOT AVBL
DRYDEN           N/A     69  64  84 VRB3      29.97R
EL PASO        MOCLDY    78  52  40 CALM      29.98S
FORT STOCKTON  CLEAR     70  64  81 SE9       29.97S
GUADALUPE PASS CLEAR     71  57  61 CALM      30.13S
MARFA          NOT AVBL
PECOS          NOT AVBL
$$

DALLAS/FORT WORTH METROPLEX

CITY           SKY/WX    TMP DP  RH WIND       PRES   REMARKS
DFW AIRPORT    PTCLDY    74  69  85 S12       29.94F
FTW MEACHAM    CLEAR     74  68  81 S12       29.95S
DAL-EXECUTIVE  CLEAR     72  69  90 S7        29.96F
GRAND PRAIRIE  NOT AVBL
ADDISON        NOT AVBL
MESQUITE       NOT AVBL
LANCASTER      NOT AVBL
$$

NORTH CENTRAL TEXAS

CITY           SKY/WX    TMP DP  RH WIND       PRES   REMARKS
SHRMAN/DENISON NOT AVBL
GAINESVILLE    NOT AVBL
BRIDGEPORT     NOT AVBL
DENTON         PTCLDY    73  68  84 S12       29.94F
WAXAHACHIE     NOT AVBL
GRANBURY       NOT AVBL
$$

WESTERN NORTH TEXAS

CITY           SKY/WX    TMP DP  RH WIND       PRES   REMARKS
WICHITA FALLS  MOCLDY    76  67  73 SW14      29.92R
VERNON         NOT AVBL
BRECKENRIDGE   NOT AVBL
COMANCHE       NOT AVBL
$$

CENTRAL AND SOUTH CENTRAL TEXAS

CITY           SKY/WX    TMP DP  RH WIND       PRES   REMARKS
AUSTIN/BERGSTM PTCLDY    69  69 100 S6        30.02R
WACO           CLEAR     72  69  90 S9        30.00R
HILLSBORO      NOT AVBL
TEMPLE         NOT AVBL
KILLEEN-GRAY   NOT AVBL
FORT HOOD      NOT AVBL
GEORGETOWN     NOT AVBL
LAGO VISTA     NOT AVBL
SAN MARCOS     NOT AVBL
NEW BRAUNFELS  FOG       71  70  96 S5        30.01R VSB 1/2
RANDOLPH AFB   FOG       68  68 100 SE3       30.02R VSB 1
SAN ANTONIO    PTCLDY    72  67  84 S7        30.02S
STINSON        CLEAR     70  68  93 CALM      30.00S
PLEASANTON     NOT AVBL
LA GRANGE      NOT AVBL
GIDDINGS       NOT AVBL
$$

EAST TEXAS

CITY           SKY/WX    TMP DP  RH WIND       PRES   REMARKS
PARIS          NOT AVBL
CLARKSVILLE    NOT AVBL
TYLER          CLEAR     74  68  81 SW10      29.99S
LONGVIEW       PTCLDY    77  68  73 SW8       29.98S
PALESTINE      NOT AVBL
NACOGDOCHES    NOT AVBL
$$

TEXAS HILL COUNTRY AND EDWARDS PLATEAU

CITY           SKY/WX    TMP DP  RH WIND       PRES   REMARKS
LLANO          NOT AVBL
HORSESHOE BAY  NOT AVBL
KERRVILLE      NOT AVBL
FREDERICKSBRG  NOT AVBL
ROCKSPRINGS    NOT AVBL
HONDO          CLEAR     68  65  90 SE6       30.03S
UVALDE         NOT AVBL
DEL RIO        CLEAR     71  64  78 E9        29.96R
$$

SOUTHEAST TEXAS

CITY           SKY/WX    TMP DP  RH WIND       PRES   REMARKS
COLLEGE STN    CLEAR     71  69  93 S5        30.03R
CALDWELL       NOT AVBL
CROCKETT       NOT AVBL
BRENHAM        NOT AVBL
HUNTSVILLE     CLOUDY    72  71  97 S5        30.04S FOG
CONROE         FOG       70  69  97 CALM      30.05R VSB 3/4
HOUSTON BUSH   PTCLDY    72  70  93 CALM      30.03F
HOUSTON HOBBY  PTCLDY    72  70  93 CALM      30.03S
PERLAND        CLEAR     72  70  93 CALM      30.04S
WHARTON        NOT AVBL
$$

THE UPPER TEXAS COAST

CITY           SKY/WX    TMP DP  RH WIND       PRES   REMARKS
ORANGE         NOT AVBL
PORT ARTHUR    PTCLDY    75  73  93 CALM      30.04R
GALVESTON      PTCLDY    79  77  94 CALM      30.03S
ANGLETON       CLEAR     73  72  96 CALM      30.02R
BAY CITY       NOT AVBL
$$

TEXAS COASTAL BEND, RIO GRANDE PLAINS DEEP SOUTH TEXAS

CITY           SKY/WX    TMP DP  RH WIND       PRES   REMARKS
VICTORIA       CLEAR     71  71 100 E3        30.01R
BEEVILLE       NOT AVBL
ROCKPORT       CLEAR     80  76  87 SE8       29.98R
PORT ARANSAS   NOT AVBL
PORT LAVACA    SUNNY     73  72  94 CALM      30.00S
CORPUS CHRISTI CLOUDY    73  70  90 CALM      29.98R
KINGSVILLE NAS CLEAR     71  71 100 N6        29.98R
COTULLA        CLEAR     69  66  90 SE6       29.98S
LAREDO         NOT AVBL
BROWNSVILLE    MOCLDY    73  72  96 E6        29.96S
PORT ISABEL    PTCLDY    77  75  93 SE6       29.95S
HEBBRONVILLE   NOT AVBL
MCALLEN        MOCLDY    75  70  84 CALM      29.97R
WESLACO        NOT AVBL
FALFURRIAS     NOT AVBL
EDINBURG       NOT AVBL
$$


USA.gov is the U.S. government's official web portal to all federal, state and local government web resources and services.